{"data":{"norad_id":62566,"intl_designator":"2025-006N","name":"STARLINK-11525 [DTC]","alt_names":[],"object_type":"PAYLOAD","status":"ACTIVE","operator":null,"country":"US","launch_date":"2025-01-10","launch_site_code":"AFETR","launch_vehicle":null,"mission":null,"orbit_class":"UNKNOWN","rcs_meters":null,"size_class":null,"mass_kg":null,"dimensions":null,"purposes":["comms"],"wikipedia_slug":null,"has_3d_model":false,"image_url":null,"decayed_at":null,"tle_current":{"epoch":"2026-05-25T02:14:57.408864Z","epoch_age_seconds":60312,"freshness":"FRESH","line1":"1 62566U 25006N   26145.09372001  .00013160  00000+0  10589-3 0  9994","line2":"2 62566  43.0034  39.8108 0002429 254.1074 105.9526 15.70840816 78610","mean_motion":15.70840816,"eccentricity":0.0002429,"inclination_deg":43.0034,"raan_deg":39.8108,"arg_perigee_deg":254.1074,"mean_anomaly_deg":105.9526,"bstar":0.00010589,"rev_number":7861,"period_min":91.67065085989,"perigee_km":354.85688772761,"apogee_km":358.1285708501,"semimajor_km":6734.6297292889,"source":"CELESTRAK","updated_at":"2026-05-25T13:38:19.729113Z"}}}